EWG7ZP EDDS-EDDB

Flight info

Callsign EWG7ZP
Flight time 0h 52m
Altitude 35000
Route OKIBA4B/25 OKIBA N851 RIMKI Z99 LOHRE N746 TIKNI T279 TAMEB T278 KLF KLF1L
Aircraft A319/M-SDE3FGHIRWY/LB1

Departure

Time 2026-05-05 15:12
Airport Stuttgart Airport (EDDS)

Arrival

Time 2026-05-05 16:04
Airport Berlin Brandenburg Airport (EDDB)
Time Latitude Longitude Altitude Speed Heading
2026-05-05 14:32 48.68729 9.19329 1313 ft 0 kts 163°
2026-05-05 15:04 48.68725 9.19331 1313 ft 1 kts 163°
2026-05-05 15:04 48.68700 9.19342 1312 ft 6 kts 163°
2026-05-05 15:05 48.68700 9.19552 1305 ft 17 kts 73°
2026-05-05 15:05 48.68739 9.19755 1299 ft 23 kts 74°
2026-05-05 15:05 48.68780 9.19913 1296 ft 14 kts 52°
2026-05-05 15:06 48.68840 9.20047 1294 ft 17 kts 71°
2026-05-05 15:06 48.68879 9.20250 1290 ft 23 kts 74°
2026-05-05 15:06 48.68928 9.20508 1283 ft 28 kts 74°
2026-05-05 15:06 48.68979 9.20770 1278 ft 25 kts 73°
2026-05-05 15:07 48.69018 9.20983 1271 ft 15 kts 74°
2026-05-05 15:07 48.69052 9.21163 1271 ft 21 kts 74°
2026-05-05 15:07 48.69097 9.21401 1265 ft 26 kts 74°
2026-05-05 15:07 48.69151 9.21686 1257 ft 21 kts 74°
2026-05-05 15:08 48.69185 9.21867 1257 ft 20 kts 74°
2026-05-05 15:08 48.69230 9.22102 1245 ft 26 kts 74°
2026-05-05 15:08 48.69286 9.22391 1238 ft 31 kts 73°
2026-05-05 15:08 48.69341 9.22686 1232 ft 30 kts 74°
2026-05-05 15:09 48.69389 9.22938 1227 ft 24 kts 74°
2026-05-05 15:09 48.69440 9.23207 1221 ft 29 kts 74°
2026-05-05 15:09 48.69494 9.23495 1216 ft 20 kts 74°
2026-05-05 15:09 48.69538 9.23725 1211 ft 25 kts 74°
2026-05-05 15:10 48.69592 9.24007 1205 ft 29 kts 73°
2026-05-05 15:10 48.69580 9.24232 1196 ft 19 kts 122°
2026-05-05 15:10 48.69491 9.24320 1190 ft 14 kts 163°
2026-05-05 15:10 48.69434 9.24345 1190 ft 9 kts 166°
2026-05-05 15:11 48.69380 9.24266 1192 ft 18 kts 254°
2026-05-05 15:11 48.69313 9.23907 1199 ft 65 kts 254°
2026-05-05 15:11 48.69127 9.22932 1219 ft 126 kts 254°
2026-05-05 15:11 48.68849 9.21485 1569 ft 146 kts 255°
2026-05-05 15:12 48.68587 9.20008 2294 ft 145 kts 256°
2026-05-05 15:12 48.68311 9.18450 2760 ft 165 kts 253°
2026-05-05 15:12 48.67963 9.16686 3179 ft 184 kts 252°
2026-05-05 15:12 48.67566 9.14741 3674 ft 203 kts 252°
2026-05-05 15:13 48.67114 9.12576 4096 ft 231 kts 251°
2026-05-05 15:13 48.67017 9.10129 5082 ft 242 kts 283°
2026-05-05 15:13 48.67918 9.07929 6206 ft 252 kts 307°
2026-05-05 15:13 48.69295 9.06254 7241 ft 264 kts 331°
2026-05-05 15:14 48.71148 9.05441 7963 ft 288 kts 344°
2026-05-05 15:14 48.73149 9.04829 8982 ft 296 kts 348°
2026-05-05 15:14 48.75207 9.04722 10190 ft 299 kts
2026-05-05 15:14 48.77323 9.05335 10822 ft 322 kts 12°
2026-05-05 15:15 48.79584 9.06146 11383 ft 342 kts 12°
2026-05-05 15:15 48.81926 9.06956 12248 ft 347 kts 11°
2026-05-05 15:15 48.84267 9.07729 13412 ft 340 kts 10°
2026-05-05 15:15 48.86570 9.08474 14388 ft 339 kts 10°
2026-05-05 15:16 48.88862 9.09214 15204 ft 342 kts 10°
2026-05-05 15:16 48.91161 9.09958 16356 ft 330 kts 11°
2026-05-05 15:16 48.93371 9.10681 17581 ft 323 kts 11°
2026-05-05 15:16 48.95597 9.11098 18428 ft 325 kts 355°
2026-05-05 15:17 48.97847 9.10687 19153 ft 327 kts 349°
2026-05-05 15:17 49.00107 9.10132 19869 ft 330 kts 349°
2026-05-05 15:17 49.02388 9.09549 20548 ft 334 kts 349°
2026-05-05 15:17 49.04694 9.08944 21214 ft 338 kts 349°
2026-05-05 15:18 49.07024 9.08320 21879 ft 340 kts 349°
2026-05-05 15:18 49.09327 9.07692 22806 ft 335 kts 349°
2026-05-05 15:18 49.11628 9.07052 23518 ft 337 kts 349°
2026-05-05 15:18 49.13944 9.06397 24071 ft 340 kts 349°
2026-05-05 15:19 49.16127 9.05770 24594 ft 342 kts 349°
2026-05-05 15:19 49.18546 9.05063 25162 ft 345 kts 349°
2026-05-05 15:19 49.20918 9.04354 25716 ft 348 kts 349°
2026-05-05 15:19 49.23301 9.03632 26254 ft 351 kts 349°
2026-05-05 15:20 49.25713 9.02933 26777 ft 354 kts 354°
2026-05-05 15:20 49.28169 9.03068 27312 ft 355 kts 15°
2026-05-05 15:20 49.30491 9.04322 27861 ft 355 kts 26°
2026-05-05 15:20 49.32535 9.05654 28136 ft 364 kts 26°
2026-05-05 15:21 49.34874 9.07198 28543 ft 370 kts 26°
2026-05-05 15:21 49.37209 9.08747 29027 ft 374 kts 26°
2026-05-05 15:21 49.39603 9.10335 29548 ft 377 kts 26°
2026-05-05 15:21 49.42052 9.11867 30028 ft 382 kts 24°
2026-05-05 15:22 49.44555 9.13312 30454 ft 386 kts 23°
2026-05-05 15:22 49.47094 9.14718 30918 ft 390 kts 22°
2026-05-05 15:22 49.49660 9.16121 31394 ft 394 kts 22°
2026-05-05 15:22 49.52238 9.17538 31972 ft 394 kts 22°
2026-05-05 15:23 49.54823 9.18974 32553 ft 394 kts 22°
2026-05-05 15:23 49.57399 9.20419 33115 ft 395 kts 23°
2026-05-05 15:23 49.59974 9.21879 33666 ft 395 kts 23°
2026-05-05 15:23 49.62554 9.23354 34063 ft 397 kts 22°
2026-05-05 15:24 49.65155 9.24848 34308 ft 398 kts 22°
2026-05-05 15:24 49.67692 9.26306 34541 ft 401 kts 22°
2026-05-05 15:24 49.70325 9.27822 34764 ft 407 kts 22°
2026-05-05 15:25 49.75726 9.30930 34848 ft 429 kts 22°
2026-05-05 15:25 49.81409 9.34175 34840 ft 438 kts 21°
2026-05-05 15:26 49.87139 9.37436 34836 ft 439 kts 21°
2026-05-05 15:26 49.92878 9.40706 34835 ft 439 kts 21°
2026-05-05 15:27 49.98609 9.43981 34832 ft 439 kts 21°
2026-05-05 15:27 50.04254 9.47229 34828 ft 439 kts 21°
2026-05-05 15:28 50.09555 9.51813 34833 ft 435 kts 38°
2026-05-05 15:28 50.14407 9.57280 34829 ft 435 kts 38°
2026-05-05 15:29 50.19323 9.62809 34821 ft 435 kts 38°
2026-05-05 15:29 50.24232 9.68338 34818 ft 435 kts 38°
2026-05-05 15:30 50.29112 9.73851 34793 ft 436 kts 37°
2026-05-05 15:30 50.34017 9.79411 34792 ft 435 kts 37°
2026-05-05 15:31 50.38930 9.84995 34789 ft 436 kts 37°
2026-05-05 15:31 50.43405 9.91341 34790 ft 434 kts 49°
2026-05-05 15:32 50.47261 9.98582 34788 ft 432 kts 56°
2026-05-05 15:32 50.50816 10.06212 34783 ft 433 kts 56°
2026-05-05 15:33 50.53758 10.12603 34789 ft 434 kts 56°
2026-05-05 15:33 50.57295 10.20296 34793 ft 434 kts 56°
2026-05-05 15:34 50.60840 10.27999 34798 ft 435 kts 56°
2026-05-05 15:34 50.64390 10.35705 34785 ft 435 kts 56°
2026-05-05 15:35 50.67966 10.43411 34791 ft 435 kts 56°
2026-05-05 15:35 50.72121 10.52391 34801 ft 436 kts 56°
2026-05-05 15:36 50.75114 10.58870 34805 ft 436 kts 56°
2026-05-05 15:36 50.78647 10.66573 34814 ft 436 kts 56°
2026-05-05 15:37 50.82196 10.74337 34820 ft 436 kts 56°
2026-05-05 15:37 50.85747 10.82114 34828 ft 436 kts 56°
2026-05-05 15:38 50.89288 10.89902 34814 ft 436 kts 56°
2026-05-05 15:38 50.92831 10.97726 34814 ft 437 kts 56°
2026-05-05 15:39 50.96380 11.05566 34817 ft 438 kts 56°
2026-05-05 15:39 50.99913 11.13398 34819 ft 439 kts 56°
2026-05-05 15:40 51.03461 11.21291 34824 ft 439 kts 56°
2026-05-05 15:40 51.06976 11.29112 34607 ft 441 kts 56°
2026-05-05 15:40 51.08776 11.33135 33882 ft 449 kts 56°
2026-05-05 15:41 51.10585 11.37195 33312 ft 449 kts 56°
2026-05-05 15:41 51.12386 11.41237 32812 ft 446 kts 56°
2026-05-05 15:41 51.14146 11.45193 32356 ft 443 kts 56°
2026-05-05 15:41 51.15922 11.49187 31881 ft 440 kts 56°
2026-05-05 15:42 51.17655 11.53096 31432 ft 437 kts 56°
2026-05-05 15:42 51.19377 11.56983 31016 ft 434 kts 56°
2026-05-05 15:42 51.21110 11.60897 30598 ft 430 kts 56°
2026-05-05 15:42 51.22827 11.64780 30204 ft 427 kts 56°
2026-05-05 15:43 51.24488 11.68548 29789 ft 425 kts 56°
2026-05-05 15:43 51.26071 11.72147 29344 ft 423 kts 56°
2026-05-05 15:43 51.27752 11.75976 28912 ft 420 kts 56°
2026-05-05 15:43 51.29424 11.79788 28504 ft 417 kts 56°
2026-05-05 15:44 51.31081 11.83568 28115 ft 414 kts 56°
2026-05-05 15:44 51.32688 11.87226 27735 ft 411 kts 56°
2026-05-05 15:44 51.34329 11.90945 27340 ft 408 kts 56°
2026-05-05 15:44 51.35865 11.94422 26883 ft 403 kts 56°
2026-05-05 15:45 51.37473 11.98062 26191 ft 398 kts 56°
2026-05-05 15:45 51.39045 12.01631 25535 ft 394 kts 56°
2026-05-05 15:45 51.40611 12.05196 24879 ft 389 kts 56°
2026-05-05 15:45 51.41906 12.08152 24302 ft 385 kts 56°
2026-05-05 15:46 51.43357 12.11469 23678 ft 382 kts 56°
2026-05-05 15:46 51.44875 12.14941 22964 ft 378 kts 56°
2026-05-05 15:46 51.46172 12.17913 22324 ft 374 kts 56°
2026-05-05 15:46 51.47653 12.21314 21591 ft 369 kts 56°
2026-05-05 15:47 51.49103 12.24651 20896 ft 365 kts 56°
2026-05-05 15:47 51.50060 12.26856 20443 ft 362 kts 56°
2026-05-05 15:47 51.51917 12.31139 19576 ft 357 kts 56°
2026-05-05 15:47 51.53329 12.34396 18932 ft 353 kts 56°
2026-05-05 15:48 51.54646 12.37442 18334 ft 350 kts 56°
2026-05-05 15:48 51.55780 12.40066 17783 ft 347 kts 56°
2026-05-05 15:48 51.57033 12.42960 17154 ft 343 kts 56°
2026-05-05 15:48 51.58373 12.46058 16504 ft 340 kts 56°
2026-05-05 15:49 51.59712 12.49166 15877 ft 336 kts 56°
2026-05-05 15:49 51.60905 12.51940 15322 ft 332 kts 56°
2026-05-05 15:49 51.62217 12.54988 14731 ft 329 kts 55°
2026-05-05 15:49 51.63507 12.57992 14154 ft 325 kts 55°
2026-05-05 15:50 51.64669 12.60705 13637 ft 322 kts 56°
2026-05-05 15:50 51.65716 12.63154 13106 ft 319 kts 56°
2026-05-05 15:50 51.66969 12.66081 12493 ft 316 kts 55°
2026-05-05 15:50 51.68244 12.68930 11877 ft 315 kts 48°
2026-05-05 15:51 51.69939 12.71099 11524 ft 311 kts 27°
2026-05-05 15:51 51.71645 12.72435 11203 ft 309 kts 24°
2026-05-05 15:51 51.73653 12.73965 10843 ft 307 kts 24°
2026-05-05 15:51 51.75587 12.75424 10497 ft 305 kts 24°
2026-05-05 15:52 51.77479 12.76845 10154 ft 303 kts 24°
2026-05-05 15:52 51.79308 12.78220 9885 ft 301 kts 24°
2026-05-05 15:52 51.81206 12.79651 9840 ft 301 kts 24°
2026-05-05 15:52 51.83106 12.81088 9850 ft 302 kts 23°
2026-05-05 15:53 51.84861 12.82414 9847 ft 302 kts 23°
2026-05-05 15:53 51.86760 12.83848 9847 ft 302 kts 23°
2026-05-05 15:53 51.88662 12.85289 9799 ft 301 kts 24°
2026-05-05 15:53 51.90535 12.86715 9534 ft 300 kts 24°
2026-05-05 15:54 51.92420 12.88150 9271 ft 298 kts 24°
2026-05-05 15:54 51.94294 12.89577 9019 ft 297 kts 24°
2026-05-05 15:54 51.96169 12.91001 8752 ft 295 kts 24°
2026-05-05 15:54 51.97998 12.92389 8490 ft 293 kts 24°
2026-05-05 15:55 51.99866 12.93810 8233 ft 292 kts 24°
2026-05-05 15:55 52.01678 12.95188 7983 ft 290 kts 24°
2026-05-05 15:55 52.03526 12.96598 7687 ft 289 kts 24°
2026-05-05 15:55 52.05336 12.97985 7374 ft 287 kts 24°
2026-05-05 15:56 52.07136 12.99367 7040 ft 285 kts 24°
2026-05-05 15:56 52.08894 13.00720 6737 ft 283 kts 24°
2026-05-05 15:56 52.10668 13.02082 6449 ft 281 kts 24°
2026-05-05 15:56 52.12436 13.03437 6148 ft 279 kts 24°
2026-05-05 15:57 52.14187 13.04774 5844 ft 277 kts 24°
2026-05-05 15:57 52.15927 13.06102 5476 ft 276 kts 24°
2026-05-05 15:57 52.17670 13.07420 5113 ft 275 kts 24°
2026-05-05 15:57 52.19404 13.08719 4790 ft 273 kts 24°
2026-05-05 15:58 52.21120 13.10000 4483 ft 269 kts 24°
2026-05-05 15:58 52.22799 13.11248 4280 ft 262 kts 24°
2026-05-05 15:58 52.24438 13.12461 4095 ft 255 kts 24°
2026-05-05 15:58 52.25957 13.13859 3923 ft 247 kts 39°
2026-05-05 15:59 52.27063 13.15940 3743 ft 241 kts 59°
2026-05-05 15:59 52.27722 13.18406 3567 ft 234 kts 68°
2026-05-05 15:59 52.28301 13.20806 3452 ft 221 kts 68°
2026-05-05 15:59 52.28856 13.23107 3225 ft 215 kts 68°
2026-05-05 16:00 52.29395 13.25344 2950 ft 206 kts 68°
2026-05-05 16:00 52.29905 13.27467 2693 ft 196 kts 67°
2026-05-05 16:00 52.30384 13.29463 2445 ft 182 kts 67°
2026-05-05 16:00 52.30830 13.31311 2159 ft 167 kts 67°
2026-05-05 16:01 52.31236 13.32973 1923 ft 148 kts 67°
2026-05-05 16:01 52.31598 13.34469 1755 ft 136 kts 66°
2026-05-05 16:01 52.31953 13.35854 1614 ft 128 kts 65°
2026-05-05 16:01 52.32272 13.37201 1445 ft 128 kts 67°
2026-05-05 16:02 52.32588 13.38543 1295 ft 129 kts 67°
2026-05-05 16:02 52.32898 13.39917 1122 ft 126 kts 68°
2026-05-05 16:02 52.33209 13.41249 903 ft 129 kts 67°
2026-05-05 16:02 52.33550 13.42608 759 ft 127 kts 68°
2026-05-05 16:03 52.33869 13.43951 597 ft 128 kts 69°
2026-05-05 16:03 52.34190 13.45319 412 ft 130 kts 69°
2026-05-05 16:03 52.34504 13.46682 244 ft 132 kts 69°
2026-05-05 16:03 52.34819 13.48020 160 ft 112 kts 70°
2026-05-05 16:04 52.35047 13.48972 157 ft 74 kts 69°
2026-05-05 16:04 52.35208 13.49654 157 ft 57 kts 69°
2026-05-05 16:04 52.35355 13.50264 156 ft 48 kts 68°
2026-05-05 16:04 52.35474 13.50552 157 ft 27 kts 44°
2026-05-05 16:05 52.35619 13.50744 153 ft 23 kts 37°
2026-05-05 16:05 52.35727 13.50844 151 ft 15 kts
2026-05-05 16:05 52.35814 13.50799 151 ft 11 kts 339°
2026-05-05 16:05 52.35862 13.50770 153 ft 6 kts 340°
2026-05-05 16:06 52.35875 13.50765 153 ft 2 kts 353°
2026-05-05 16:06 52.35895 13.50777 153 ft 4 kts 27°
2026-05-05 16:06 52.35917 13.50828 154 ft 8 kts 68°
2026-05-05 16:06 52.35940 13.50923 156 ft 10 kts 68°
2026-05-05 16:07 52.35967 13.51034 156 ft 13 kts 69°
2026-05-05 16:07 52.36004 13.51193 155 ft 15 kts 68°
2026-05-05 16:07 52.36042 13.51355 155 ft 15 kts 68°
2026-05-05 16:07 52.36084 13.51459 156 ft 7 kts
2026-05-05 16:08 52.36131 13.51431 155 ft 8 kts 338°
2026-05-05 16:08 52.36154 13.51416 155 ft 1 kts 339°
2026-05-05 16:08 52.36155 13.51416 155 ft 0 kts 339°